Weather History for Pellston, MI

Change the Weather History Date:

Thursday, May 9, 2013

  Actual Average Record
Temperature  
Mean Temperature 56 °F -  
Max Temperature 73 °F 61 °F 89 °F (1993)
Min Temperature 39 °F 37 °F 19 °F (1955)
Degree Days  
Heating Degree Days 9    
Growing Degree Days 6 (Base 50)    
Moisture  
Dew Point 40 °F    
Average Humidity 59    
Maximum Humidity 89    
Minimum Humidity 29    
Precipitation  
Precipitation 0.07 in - - ()
Sea Level Pressure  
Sea Level Pressure 29.99 in    
Wind  
Wind Speed 3 mph (NNE)    
Max Wind Speed 14 mph    
Max Gust Speed -    
Visibility 10 miles    
Events Rain    
Averages and records for this station are not official NWS values.
T = Trace of Precipitation, MM = Missing Value Source: NWS Daily Summary

Daily Weather History Graph

Daily Weather History Graph

Search for Another Location

Airport:

Trip Planner

Search our weather history database for the weather conditions in past years. The results will help you decide how hot, cold, wet, or windy it might be!

Date:

Astronomy

May. 09, 2013 Rise Set
Actual Time 6:15 AM EDT 8:56 PM EDT
Civil Twilight 5:41 AM EDT 9:30 PM EDT
Nautical Twilight 4:58 AM EDT 10:13 PM EDT
Astronomical Twilight 4:09 AM EDT 11:03 PM EDT
Moon 6:01 AM EDT (5/9) 8:50 PM EDT (5/9)
Length of Visible Light 15h 48m
Length of Day
14h 41m
Waning Crescent, 0% of the Moon is Illuminated
May 9
Waning Crescent
May 9
New
May 18
First Quarter
May 25
Full
May 31
Last Quarter

Hourly Weather History & Observations

Time (EDT) Temp. Dew Point Humidity Pressure Visibility Wind Dir Wind Speed Gust Speed Precip Events Conditions
12:54 AM 46.0 °F 39.0 °F 76% 29.99 in 10.0 mi Calm Calm - N/A   Clear
1:54 AM 45.0 °F 39.0 °F 80% 29.98 in 10.0 mi Calm Calm - N/A   Clear
2:54 AM 43.0 °F 37.9 °F 82% 29.96 in 10.0 mi Calm Calm - N/A   Clear
3:54 AM 41.0 °F 37.0 °F 86% 29.96 in 10.0 mi Calm Calm - N/A   Clear
4:54 AM 39.9 °F 37.0 °F 89% 29.96 in 10.0 mi Calm Calm - N/A   Clear
5:54 AM 39.0 °F 36.0 °F 89% 29.96 in 10.0 mi Calm Calm - N/A   Clear
6:54 AM 39.9 °F 37.0 °F 89% 29.98 in 10.0 mi Calm Calm - N/A   Clear
8:54 AM 57.9 °F 39.9 °F 51% 29.98 in 10.0 mi Calm Calm - N/A   Clear
9:54 AM 64.0 °F 41.0 °F 43% 29.97 in 10.0 mi South 3.5 mph - N/A   Clear
10:54 AM 70.0 °F 41.0 °F 35% 29.97 in 10.0 mi Variable 3.5 mph - 0.00 in   Clear
11:54 AM 73.9 °F 39.9 °F 29% 29.97 in 10.0 mi Calm Calm - 0.00 in   Clear
1:54 PM 73.0 °F 44.1 °F 35% 29.99 in 10.0 mi North 11.5 mph - N/A   Partly Cloudy
2:54 PM 72.0 °F 44.1 °F 37% 29.98 in 10.0 mi North 11.5 mph - N/A   Clear
3:54 PM 72.0 °F 42.1 °F 34% 29.97 in 10.0 mi North 12.7 mph - N/A   Clear
4:54 PM 71.1 °F 42.1 °F 35% 29.97 in 10.0 mi North 13.8 mph - N/A   Clear
5:54 PM 68.0 °F 42.1 °F 39% 29.98 in 10.0 mi NE 11.5 mph - N/A   Clear
6:54 PM 63.0 °F 39.9 °F 43% 29.99 in 10.0 mi NNE 12.7 mph - N/A   Partly Cloudy
7:54 PM 59.0 °F 37.9 °F 46% 30.00 in 10.0 mi North 12.7 mph - N/A   Overcast
8:54 PM 55.9 °F 39.9 °F 55% 30.02 in 10.0 mi North 5.8 mph - 0.00 in   Overcast
9:54 PM 53.1 °F 43.0 °F 69% 30.05 in 10.0 mi NE 4.6 mph - 0.00 in Rain Light Rain
10:54 PM 48.9 °F 43.0 °F 80% 30.05 in 10.0 mi NNE 9.2 mph - 0.02 in Rain Light Rain
11:54 PM 46.9 °F 43.0 °F 86% 30.05 in 6.0 mi NE 8.1 mph - 0.05 in Rain Rain